Lexington Weather

Lexington, Massachusetts, USA

69°F
6/18/2024 2:20am 
  • Lexington Conditions: Clear
  • Temperature: 68.7°F / 20.4°CColder 0.6°F than last hour.
  • Dew Point: 62.6°FIncreased 0.5°Fsince last hour.
  • Relative Humidity: 81%Increased 3.0% since last hour.
  • Wind: Calm, 10-min avg: Calm, gust: 4 mph
  • Barometer: 30.08 in Steady
  • Visibility: 10 miles
  • Rain Today: 0.00 in
  •   
Southeast Middlesex County, MA - Heat Advisory - Excessive Heat Watch
 - SEE ALL NEARBY ALERTS -

Regional Weather Roundup
for Boston, MA

        
000
ASUS41 KBOX 151010
RWRBOX

REGIONAL WEATHER ROUNDUP
NATIONAL WEATHER SERVICE BOSTON/NORTON MA
600 AM EDT SAT JUN 15 2024

NOTE:  "FAIR" INDICATES FEW OR NO CLOUDS BELOW 12,000 FEET WITH NO 
SIGNIFICANT WEATHER AND/OR OBSTRUCTIONS TO VISIBILITY.

MAZALL-151100-
EASTERN MASSACHUSETTS
  
CITY           SKY/WX    TMP DP  RH WIND       PRES   REMARKS
BOSTON         MOCLDY    66  61  84 NW9       29.88R                  
BEVERLY        CLOUDY    64  62  93 NW7       29.88R                  
LAWRENCE       MOCLDY    64  58  80 N6        29.91R                  
BEDFORD        PTCLDY    62  58  86 NW7       29.87R                  
NORWOOD        PTCLDY    66  63  90 NW3       29.88R                  
MARSHFIELD     MOCLDY    64  61  88 VRB7G14   29.86R                  
PLYMOUTH       CLOUDY    66  64  93 N8        29.85R                  
TAUNTON        MOCLDY    67  62  84 VRB3      29.86R                  
NEW BEDFORD    CLOUDY    66  65  96 VRB5      29.85R                  
$$

MAZALL-151100-
CAPE COD AND THE ISLANDS
  
CITY           SKY/WX    TMP DP  RH WIND       PRES   REMARKS
FALMOUTH       FOG       64  64 100 W7        29.87R VSB 1            
HYANNIS        CLEAR     64  64 100 W3        29.83R FOG              
CHATHAM        PTCLDY    66  65  96 CALM      29.83R FOG              
PROVINCETOWN   PTCLDY    64  64 100 W6        29.85R                  
NANTUCKET      CLEAR     62  62 100 CALM      29.84  FOG              
MARTHAS VNYRD  CLEAR     62  62 100 CALM      29.84R FOG              
$$
 
MAZALL-151100-
CENTRAL AND WESTERN MASSACHUSETTS
  
CITY           SKY/WX    TMP DP  RH WIND       PRES   REMARKS
WORCESTER      MOCLDY    63  54  72 N9        29.91R                  
FITCHBURG      CLOUDY    64  54  69 NW6       29.91R                  
ORANGE         CLEAR     60  55  83 CALM      29.94R                  
SPRINGFIELD    NOT AVBL                                               
WESTFIELD      CLEAR     60  58  92 NE6       29.92R                  
NORTH ADAMS    CLEAR     56  53  90 CALM      29.97R                  
PITTSFIELD     CLEAR     56  50  80 NE5       29.96R                  
$$
 
RIZALL-151100-
RHODE ISLAND
  
CITY           SKY/WX    TMP DP  RH WIND       PRES   REMARKS
PROVIDENCE     PTCLDY    65  60  84 N8        29.87R                  
NEWPORT        CLOUDY    63  62  97 N5        29.86R                  
BLOCK ISLAND   FOG       62  62 100 N6        29.87R VSB 1/4          
SMITHFIELD     CLOUDY    62  62 100 N7        29.89R                  
WESTERLY       PTCLDY    64  62  93 N5        29.86R                  
$$
 
CTZALL-151100-
CONNECTICUT
  
CITY           SKY/WX    TMP DP  RH WIND       PRES   REMARKS
BRADLEY INTL   CLEAR     63  58  83 N7        29.91R                  
HARTFORD       PTCLDY    64  60  87 N5        29.90R                  
PLAINVILLE     MOSUNNY   61  61  97 CALM      29.91R                  
BRIDGEPORT     PTCLDY    64  59  83 N8        29.89R                  
DANBURY        PTCLDY    61  57  87 W3        29.93R                  
GROTON         PTCLDY    65  63  93 N12       29.86R                  
NEW HAVEN      PTCLDY    66  62  87 N8        29.89R                  
CHESTER        CLEAR     63  63 100 NW8       29.89R                  
MERIDEN        PTCLDY    63  58  83 NW5       29.90R                  
WILLIMANTIC    CLEAR     62  60  93 NE6       29.89R                  
OXFORD         PTCLDY    60  57  89 N9        29.93R                  
$$

MEZ002-015-021-024-NHZ003-005-008-011-012-014-VTZ005-008-151100-
NORTHERN NEW ENGLAND
  
CITY           SKY/WX    TMP DP  RH WIND       PRES   REMARKS
PORTLAND ME    CLOUDY    62  61  96 N7        29.89R                  
BANGOR ME      LGT RAIN  61  56  83 N9        29.87R                  
CONCORD NH     PTCLDY    63  53  70 NW10      29.91R                  
MANCHESTER NH  MOCLDY    66  55  67 NW9       29.89R                  
NASHUA NH      MOCLDY    63  63 100 NW5       29.91R                  
PORTSMOUTH NH  MOCLDY    65  60  82 NW6       29.87R                  
JAFFREY NH     CLEAR     60  52  74 MISG      29.94R                  
KEENE NH       CLEAR     56  54  93 CALM      29.94R                  
BURLINGTON VT  PTCLDY    55  43  63 NE7       30.03R                  
MT. WASHINGTON FOG       39  39 100 NW33        N/A  VSB 1/16WCI  27  
$$

NYZ052-076-151100-
EASTERN NEW YORK
  
CITY           SKY/WX    TMP DP  RH WIND       PRES   REMARKS
ALBANY         PTCLDY    62  50  64 N10       29.99R                  
NEW YORK CITY  PTCLDY    68  58  70 N10       29.90R                  
$$
 
ANZALL-151100-
MARINE OBSERVATIONS
  
STATION/POSITION TIME  TEMP    WIND        PRES    VSBY  WAVE
                       AIR SEA DIR/SP/G                  HT/PER
                 (UTC) (F)     (DEG/KT/KT) (MB)    (MI)  (FT/S)
BOSTON BUOY      0950   64 63  320/ 10/ 12 1011.5R         1/ 7
BUZZARDS BAY     0900   64     270/  5/  6 1010.6R
NANTUCKET SOUND  0950   66 67  290/  6/  8 1010.0R         1
MASS BAY-STELLWA 0804   63 61   20/  8/ 10 1009.9R  1 7/8  2/ 8
ISLE OF SHOALS   0900   63      10/ 17/ 19 1009.7F
S OF BLOCK IS    0956      65                N/A           3/ 5
$$

......................KEY.........................
  SKY/WX - SKY CONDITION/PRESENT WEATHER
  TMP    - TEMPERATURE IN FAHRENHEIT
  DWPT   - DEWPOINT IN FAHRENHEIT
  RH     - RELATIVE HUMIDITY IN PERCENT
  WIND   - DIRECTION AND SPEED IN MPH
  PRES   - MEAN SEA LEVEL PRESSURE IN INCHES OF HG
  WCI    - WIND CHILL INDEX
  VSB    - VISIBILITY IN MILES
  HX     - HEAT INDEX
  TC     - TEMPERATURE IN CELSIUS
  VRB    - VARIABLE WIND DIRECTION
  N/A    - NOT AVAILABLE
  
      

Other recent Regional Weather Roundups

Tue Jun 18, 1:10am EDT

Tue Jun 18, 12:10am EDT

Mon Jun 17, 11:10pm EDT

Mon Jun 17, 10:10pm EDT

Mon Jun 17, 9:10pm EDT

Mon Jun 17, 8:10pm EDT

Mon Jun 17, 7:10pm EDT

Mon Jun 17, 6:10pm EDT

Mon Jun 17, 5:10pm EDT

Mon Jun 17, 4:10pm EDT

Mon Jun 17, 3:10pm EDT

Mon Jun 17, 2:10pm EDT

Mon Jun 17, 1:10pm EDT

Mon Jun 17, 12:10pm EDT

Mon Jun 17, 11:10am EDT

Mon Jun 17, 10:10am EDT

Mon Jun 17, 9:10am EDT

Mon Jun 17, 8:10am EDT

Mon Jun 17, 7:10am EDT

Mon Jun 17, 6:10am EDT

Mon Jun 17, 5:10am EDT

Mon Jun 17, 4:10am EDT

Mon Jun 17, 3:10am EDT

Mon Jun 17, 2:10am EDT

Mon Jun 17, 1:10am EDT

Mon Jun 17, 12:10am EDT

Sun Jun 16, 11:10pm EDT

Sun Jun 16, 10:10pm EDT

Sun Jun 16, 9:10pm EDT

Sun Jun 16, 8:10pm EDT

Sun Jun 16, 7:10pm EDT

Sun Jun 16, 6:10pm EDT

Sun Jun 16, 5:10pm EDT

Sun Jun 16, 4:10pm EDT

Sun Jun 16, 3:10pm EDT

Sun Jun 16, 2:10pm EDT

Sun Jun 16, 1:10pm EDT

Sun Jun 16, 12:10pm EDT

Sun Jun 16, 11:10am EDT

Sun Jun 16, 10:10am EDT

Sun Jun 16, 9:10am EDT

Sun Jun 16, 8:10am EDT

Sun Jun 16, 7:10am EDT

Sun Jun 16, 6:10am EDT

Sun Jun 16, 5:10am EDT

Sun Jun 16, 4:10am EDT

Sun Jun 16, 3:10am EDT

Sun Jun 16, 2:10am EDT

Sun Jun 16, 1:10am EDT

Sun Jun 16, 12:10am EDT

Sat Jun 15, 11:10pm EDT

Sat Jun 15, 10:10pm EDT

Sat Jun 15, 9:10pm EDT

Sat Jun 15, 8:10pm EDT

Sat Jun 15, 7:10pm EDT

Sat Jun 15, 6:10pm EDT

Sat Jun 15, 5:10pm EDT

Sat Jun 15, 4:10pm EDT

Sat Jun 15, 3:10pm EDT

Sat Jun 15, 2:10pm EDT

Sat Jun 15, 1:10pm EDT

Sat Jun 15, 12:10pm EDT

Sat Jun 15, 11:10am EDT

Sat Jun 15, 10:10am EDT

Sat Jun 15, 9:10am EDT

Sat Jun 15, 8:10am EDT

Sat Jun 15, 7:10am EDT

Sat Jun 15, 5:10am EDT

Sat Jun 15, 4:10am EDT

Sat Jun 15, 3:10am EDT

Sat Jun 15, 2:10am EDT

Sat Jun 15, 1:10am EDT

Sat Jun 15, 12:10am EDT

Fri Jun 14, 11:10pm EDT

Fri Jun 14, 10:10pm EDT

Fri Jun 14, 9:10pm EDT

Fri Jun 14, 8:10pm EDT

Fri Jun 14, 7:10pm EDT

Fri Jun 14, 6:10pm EDT

Fri Jun 14, 5:10pm EDT

Fri Jun 14, 4:10pm EDT

Fri Jun 14, 3:10pm EDT

Fri Jun 14, 2:10pm EDT

Fri Jun 14, 1:10pm EDT

Fri Jun 14, 12:10pm EDT

Fri Jun 14, 11:10am EDT

Fri Jun 14, 10:10am EDT

Fri Jun 14, 9:10am EDT

Fri Jun 14, 8:10am EDT

Fri Jun 14, 7:10am EDT

Fri Jun 14, 6:10am EDT

Fri Jun 14, 5:10am EDT

Fri Jun 14, 4:10am EDT

Fri Jun 14, 3:10am EDT

Fri Jun 14, 2:10am EDT

Fri Jun 14, 1:10am EDT

Fri Jun 14, 12:10am EDT

Thu Jun 13, 11:10pm EDT

Thu Jun 13, 10:10pm EDT

Thu Jun 13, 9:10pm EDT

Thu Jun 13, 8:10pm EDT

Thu Jun 13, 7:10pm EDT

Thu Jun 13, 6:10pm EDT

Thu Jun 13, 5:10pm EDT

Thu Jun 13, 4:10pm EDT

Thu Jun 13, 3:10pm EDT

Thu Jun 13, 2:10pm EDT

Thu Jun 13, 1:10pm EDT

Thu Jun 13, 12:10pm EDT

Thu Jun 13, 11:10am EDT

Thu Jun 13, 10:10am EDT

Thu Jun 13, 9:10am EDT

Thu Jun 13, 8:10am EDT

Thu Jun 13, 7:10am EDT

Thu Jun 13, 6:10am EDT

Thu Jun 13, 5:10am EDT

Thu Jun 13, 4:10am EDT

Thu Jun 13, 3:10am EDT

Thu Jun 13, 2:10am EDT

Thu Jun 13, 1:10am EDT

Thu Jun 13, 12:10am EDT

Wed Jun 12, 11:10pm EDT

Wed Jun 12, 10:10pm EDT

Wed Jun 12, 9:10pm EDT

Wed Jun 12, 8:10pm EDT

Wed Jun 12, 7:10pm EDT

Wed Jun 12, 6:10pm EDT

Wed Jun 12, 5:10pm EDT

Wed Jun 12, 4:10pm EDT

Wed Jun 12, 3:10pm EDT

Wed Jun 12, 2:10pm EDT

Wed Jun 12, 1:10pm EDT

Wed Jun 12, 12:10pm EDT

Wed Jun 12, 11:10am EDT

Wed Jun 12, 10:10am EDT

Wed Jun 12, 9:10am EDT

Wed Jun 12, 8:10am EDT

Wed Jun 12, 7:10am EDT

Wed Jun 12, 6:10am EDT

Wed Jun 12, 5:10am EDT

Wed Jun 12, 4:10am EDT

Wed Jun 12, 3:10am EDT

Wed Jun 12, 2:10am EDT

Wed Jun 12, 1:10am EDT

Wed Jun 12, 12:10am EDT

Tue Jun 11, 11:10pm EDT

Tue Jun 11, 10:10pm EDT

Tue Jun 11, 9:10pm EDT

Tue Jun 11, 8:10pm EDT

Tue Jun 11, 7:10pm EDT

Tue Jun 11, 6:10pm EDT

Tue Jun 11, 5:10pm EDT

Tue Jun 11, 4:10pm EDT

Tue Jun 11, 3:10pm EDT

Tue Jun 11, 2:10pm EDT

Tue Jun 11, 1:10pm EDT

Tue Jun 11, 12:10pm EDT

Tue Jun 11, 11:10am EDT

Tue Jun 11, 10:10am EDT

Tue Jun 11, 9:10am EDT

Tue Jun 11, 8:10am EDT

Tue Jun 11, 7:10am EDT

Tue Jun 11, 6:10am EDT

Tue Jun 11, 5:10am EDT

Tue Jun 11, 4:10am EDT

Tue Jun 11, 3:10am EDT

Tue Jun 11, 2:10am EDT